Stations météo

réclame
Mon MeteoGroup
Vichy, France (7374): Température de l'air & dewpoint: 17.07.2019 13:00:00 - 23.07.2019 13:00:00 (CEST)Vichy, France (7374): Température de l'air 5cm: 17.07.2019 13:00:00 - 23.07.2019 13:00:00 (CEST)Vichy, France (7374): Vitesse du vent & gusts: 17.07.2019 13:00:00 - 23.07.2019 13:00:00 (CEST)Vichy, France (7374): Direction du vent: 17.07.2019 13:00:00 - 23.07.2019 13:00:00 (CEST)Vichy, France (7374): reduced air pressure: 17.07.2019 13:00:00 - 23.07.2019 13:00:00 (CEST)Vichy, France (7374): visibility: 17.07.2019 13:00:00 - 23.07.2019 13:00:00 (CEST)Vichy, France (7374): Ensoleillement: 17.07.2019 13:00:00 - 23.07.2019 13:00:00 (CEST)Vichy, France (7374): Quantités de précipitations: 17.07.2019 13:00:00 - 23.07.2019 13:00:00 (CEST)
Date & Time tt [°C] td [°C] tt 5cm [°C] ff [km/h] ff [knt] fx [km/h] fx [knt] dd ppp [hPa] vv [km] sd [min] rr [mm]
23.07.2019 13:00:00 35,9 15,1 44,3 7 4 18 10 NE 1015,7 20 60 0,0
23.07.2019 12:00:00 33,7 15,7 42,0 6 3 14 8 ENE 1016,3 20 60 0,0
23.07.2019 11:00:00 32,2 15,2 37,4 4 2 11 6 S 1017,0 20 60 0,0
23.07.2019 10:00:00 28,7 15,9 33,3 9 5 15 8 SSE 1017,5 20 60 0,0
23.07.2019 09:00:00 25,8 15,5 26,5 6 3 11 6 S 1018,0 20 60 0,0
23.07.2019 08:00:00 22,3 16,1 16,7 7 4 13 7 S 1018,5 20 60 0,0
23.07.2019 07:00:00 17,5 14,6 14,2 0 0 11 6 N 1019,2 20 18 0,0
23.07.2019 06:00:00 17,1 14,0 14,7 0 0 2 1 N 1019,3 20 0 0,0
23.07.2019 05:00:00 18,0 14,1 15,6 0 0 2 1 N 1019,4 20 0 0,0
23.07.2019 04:00:00 18,8 14,3 16,3 0 0 9 5 N 1019,5 20 0 0,0
23.07.2019 03:00:00 19,7 14,5 16,8 2 1 4 2 NW 1019,4 20 0 0,0
23.07.2019 02:00:00 20,4 14,7 17,7 0 0 6 4 N 1019,5 20 0 0,0
23.07.2019 01:00:00 22,2 14,6 19,5 2 1 7 4 WNW 1019,3 20 0 0,0
23.07.2019 00:00:00 26,5 13,6 21,0 5 3 9 5 NNW 1018,9 18 0 0,0
22.07.2019 23:00:00 24,3 14,1 20,8 5 3 7 4 N 1019,2 20 0 0,0
22.07.2019 22:00:00 27,6 12,8 23,4 0 0 10 5 N 1018,9 20 3 0,0
22.07.2019 21:00:00 32,0 11,2 30,2 8 4 17 9 N 1018,3 6 60 0,0
22.07.2019 20:00:00 34,4 10,3 37,0 11 6 21 11 N 1017,9 20 60 0,0
22.07.2019 19:00:00 34,9 10,0 41,0 11 6 23 12 N 1017,9 20 60 0,0
22.07.2019 18:00:00 35,3 10,4 42,5 14 8 23 13 NNE 1018,2 20 60 0,0
22.07.2019 17:00:00 35,7 9,3 43,2 7 4 22 12 SSE 1018,7 20 60 0,0
22.07.2019 16:00:00 34,6 9,8 43,6 5 3 18 10 ESE 1019,4 20 60 0,0
22.07.2019 15:00:00 34,0 12,4 43,1 7 4 24 13 ESE 1020,0 20 60 0,0
22.07.2019 14:00:00 32,8 12,9 42,2 6 4 20 11 ESE 1020,8 20 60 0,0
22.07.2019 13:00:00 31,3 13,1 41,3 8 4 20 11 ENE 1021,5 20 60 0,0
22.07.2019 12:00:00 30,5 12,4 38,0 5 3 12 6 ESE 1021,8 20 60 0,0
22.07.2019 11:00:00 28,3 12,2 34,9 4 2 11 6 SSE 1022,5 20 60 0,0
22.07.2019 10:00:00 26,4 12,1 31,1 5 3 9 5 SSE 1022,8 19 60 0,0
22.07.2019 09:00:00 23,8 12,1 23,0 2 1 5 3 NE 1023,3 20 38 0,0
22.07.2019 08:00:00 19,4 13,1 16,2 0 0 0 0 N 1023,5 20 26 0,0
22.07.2019 07:00:00 16,3 12,5 13,0 0 0 2 1 N 1023,5 20 0 0,0
22.07.2019 06:00:00 15,6 12,2 13,2 0 0 3 1 N 1023,5 20 0 0,0
22.07.2019 05:00:00 17,2 12,5 14,7 0 0 5 3 N 1023,3 20 0 0,0
22.07.2019 04:00:00 18,6 13,2 17,3 2 1 3 2 W 1023,2 20 0 0,0
22.07.2019 03:00:00 19,5 13,2 17,4 0 0 4 2 N 1022,9 20 0 0,0
22.07.2019 02:00:00 19,6 13,1 16,5 0 0 4 2 N 1022,9 20 0 0,0
22.07.2019 01:00:00 19,8 12,8 16,5 2 1 4 2 E 1022,9 20 0 0,0
22.07.2019 00:00:00 19,3 13,0 16,7 3 2 5 3 WNW 1022,6 20 0 0,0
21.07.2019 23:00:00 21,9 12,2 18,6 0 0 8 5 N 1021,9 20 0 0,0
21.07.2019 22:00:00 25,3 11,8 22,2 5 3 16 9 N 1021,2 20 4 0,0
21.07.2019 21:00:00 29,2 11,3 28,4 10 6 19 10 N 1020,1 20 45 0,0
21.07.2019 20:00:00 30,9 11,3 32,9 14 8 22 12 NNE 1019,6 20 39 0,0
21.07.2019 19:00:00 31,0 11,9 33,1 9 5 24 13 N 1019,1 20 27 0,0
21.07.2019 18:00:00 30,7 14,3 34,6 8 5 23 13 N 1019,1 20 43 0,0
21.07.2019 17:00:00 31,2 15,2 35,3 8 5 18 10 NNW 1019,4 20 35 0,0
21.07.2019 16:00:00 30,6 15,5 35,4 12 6 26 14 NE 1019,6 20 40 0,0
21.07.2019 15:00:00 30,0 15,3 35,0 6 3 20 11 NE 1020,0 20 35 0,0
21.07.2019 14:00:00 29,6 15,3 34,6 9 5 19 10 ENE 1020,4 20 48 0,0
21.07.2019 13:00:00 27,8 16,1 32,4 11 6 21 11 NNE 1020,9 20 39 0,0
21.07.2019 12:00:00 27,9 16,2 35,9 5 3 13 7 NE 1021,1 20 60 0,0
21.07.2019 11:00:00 26,5 16,7 30,0 5 3 13 7 E 1021,4 20 51 0,0
21.07.2019 10:00:00 24,2 16,2 30,1 6 3 11 6 N 1021,5 20 52 0,0
21.07.2019 09:00:00 23,7 16,2 26,1 6 3 12 6 N 1021,6 20 60 0,0
21.07.2019 08:00:00 22,7 16,3 21,6 6 3 13 7 NNW 1021,2 20 15 0,0
21.07.2019 07:00:00 21,8 16,1 21,5 6 3 15 8 N 1020,9 20 0 0,0
21.07.2019 06:00:00 22,1 16,1 21,6 6 3 13 7 NNW 1020,6 20 0 0,0
21.07.2019 05:00:00 22,5 16,1 22,1 5 3 13 7 NNW 1020,1 20 0 0,0
21.07.2019 04:00:00 23,1 16,2 22,6 7 4 13 7 NW 1019,7 20 0 0,0
21.07.2019 03:00:00 23,9 16,2 23,0 5 3 12 6 NW 1019,7 20 0 0,0
21.07.2019 02:00:00 24,2 16,2 23,2 3 2 10 5 NW 1019,4 20 0 0,0
21.07.2019 01:00:00 24,6 16,3 23,7 4 2 12 7 NW 1018,8 20 0 0,0
21.07.2019 00:00:00 25,1 16,5 24,0 9 5 26 14 NW 1018,1 20 0 0,0
20.07.2019 23:00:00 25,9 17,3 25,2 13 7 25 13 NNW 1017,1 20 0 0,0
20.07.2019 22:00:00 27,5 17,9 26,8 11 6 25 14 NW 1016,1 20 0 0,0
20.07.2019 21:00:00 28,4 17,6 28,0 9 5 26 14 NW 1014,8 20 0 0,0
20.07.2019 20:00:00 29,8 16,6 30,2 9 5 34 19 WNW 1013,8 20 0 0,0
20.07.2019 19:00:00 32,0 13,2 32,8 10 5 28 15 WNW 1012,8 20 0 0,0
20.07.2019 18:00:00 32,6 12,8 34,6 7 4 28 15 WSW 1012,8 20 31 0,0
20.07.2019 17:00:00 33,4 11,3 36,5 9 5 28 15 SW 1012,8 20 38 0,0
20.07.2019 16:00:00 33,8 11,0 36,8 15 8 32 17 S 1012,8 20 39 0,0
20.07.2019 15:00:00 31,7 11,0 35,0 8 4 34 19 SSW 1013,1 20 41 0,0
20.07.2019 14:00:00 33,1 10,4 36,7 14 7 31 17 S 1012,9 20 42 0,0
20.07.2019 13:00:00 31,5 10,8 33,0 16 9 29 16 S 1013,5 20 38 0,0
20.07.2019 12:00:00 28,0 14,6 26,8 13 7 27 15 S 1014,1 14 17 0,0
20.07.2019 11:00:00 25,8 11,9 26,9 11 6 26 14 S 1014,3 20 6 0,0
20.07.2019 10:00:00 24,0 13,2 21,6 11 6 27 15 S 1014,4 20 9 0,0
20.07.2019 09:00:00 24,3 12,3 23,7 6 3 19 10 S 1014,5 20 35 0,0
20.07.2019 08:00:00 20,7 13,2 15,6 5 3 11 6 SSE 1014,3 20 53 0,0
20.07.2019 07:00:00 16,2 13,1 12,2 6 3 10 5 SSW 1013,7 20 21 0,0
20.07.2019 06:00:00 14,6 12,1 12,3 3 1 7 4 SSW 1013,4 20 0 0,0
20.07.2019 05:00:00 16,2 12,2 13,1 3 2 14 8 SW 1013,1 20 0 0,0
20.07.2019 04:00:00 15,5 12,3 13,3 4 2 13 7 SSW 1013,1 20 0 0,0
20.07.2019 03:00:00 17,5 13,6 13,8 7 4 13 7 S 1012,9 20 0 0,0
20.07.2019 02:00:00 16,7 12,4 13,8 4 2 8 5 SSW 1013,0 20 0 0,0
20.07.2019 01:00:00 18,2 13,1 15,4 2 1 6 3 W 1012,9 20 0 0,0
20.07.2019 00:00:00 18,9 13,3 16,3 0 0 4 2 N 1012,7 20 0 0,0
19.07.2019 23:00:00 20,9 12,8 17,8 0 0 6 4 N 1012,8 20 0 0,0
19.07.2019 22:00:00 24,1 12,4 21,2 2 1 9 5 N 1012,5 20 6 0,0
19.07.2019 21:00:00 28,4 11,5 26,4 6 4 13 7 NNE 1011,9 20 60 0,0
19.07.2019 20:00:00 31,0 10,4 35,4 5 3 12 7 S 1011,9 20 60 0,0
19.07.2019 19:00:00 31,8 10,5 37,7 6 4 18 10 S 1012,1 20 60 0,0
19.07.2019 18:00:00 31,0 9,8 38,6 8 4 20 11 S 1012,8 20 60 0,0
19.07.2019 17:00:00 30,6 10,0 38,8 9 5 18 10 NNW 1013,4 20 60 0,0
19.07.2019 16:00:00 29,7 9,8 39,2 9 5 19 11 E 1013,9 20 60 0,0
19.07.2019 15:00:00 29,0 10,6 38,5 6 4 15 8 SSW 1014,6 20 60 0,0
19.07.2019 14:00:00 28,5 11,5 31,7 7 4 21 11 SSE 1015,3 20 49 0,0
19.07.2019 13:00:00 26,0 11,4 31,9 7 4 20 11 ENE 1016,1 20 51 0,0
19.07.2019 12:00:00 25,7 11,8 27,6 5 3 16 9 ENE 1016,5 19 57 0,0
19.07.2019 11:00:00 23,2 12,2 26,6 8 4 23 12 SSE 1017,3 20 48 0,0
19.07.2019 10:00:00 22,5 12,1 24,7 11 6 18 10 SE 1017,6 20 51 0,0
19.07.2019 09:00:00 19,9 12,4 21,1 10 5 14 7 SSE 1018,1 20 47 0,0
19.07.2019 08:00:00 17,3 12,6 13,0 9 5 13 7 S 1018,2 20 40 0,0
19.07.2019 07:00:00 13,5 11,5 11,1 0 0 4 2 N 1018,4 20 18 0,0
19.07.2019 06:00:00 12,4 10,8 10,0 0 0 5 3 N 1018,5 20 0 0,0
19.07.2019 05:00:00 13,0 10,7 10,9 5 3 10 5 SSW 1018,3 20 0 0,0
19.07.2019 04:00:00 14,0 11,3 11,0 6 4 10 5 SSW 1018,0 20 0 0,0
19.07.2019 03:00:00 14,5 11,1 11,3 5 3 8 4 SSW 1018,0 20 0 0,0
19.07.2019 02:00:00 16,3 11,2 12,4 2 1 6 4 SSW 1017,6 20 0 0,0
19.07.2019 01:00:00 17,4 11,9 13,3 3 2 5 3 S 1017,4 20 0 0,0
19.07.2019 00:00:00 18,3 11,8 13,7 0 0 9 5 N 1016,8 20 0 0,0
18.07.2019 23:00:00 21,2 12,1 18,6 4 2 17 9 WNW 1016,3 20 0 0,0
18.07.2019 22:00:00 21,7 10,5 17,6 4 2 13 7 WNW 1015,9 20 6 0,0
18.07.2019 21:00:00 24,4 9,2 23,5 7 4 21 12 NW 1014,9 20 60 0,0
18.07.2019 20:00:00 26,0 8,9 27,8 10 5 26 14 NW 1014,3 20 57 0,0
18.07.2019 19:00:00 25,8 7,4 27,8 6 4 24 13 WNW 1014,1 20 8 0,0
18.07.2019 18:00:00 26,5 7,0 29,0 10 6 25 14 WNW 1013,9 20 20 0,0
18.07.2019 17:00:00 26,9 6,3 30,9 10 6 33 18 WNW 1013,8 20 40 0,0
18.07.2019 16:00:00 27,6 6,4 34,0 8 5 34 18 NW 1013,8 20 60 0,0
18.07.2019 15:00:00 26,4 3,0 35,4 9 5 32 17 W 1014,3 20 60 0,0
18.07.2019 14:00:00 25,5 6,2 32,9 10 5 27 15 WNW 1014,7 20 60 0,0
18.07.2019 13:00:00 24,7 6,4 30,9 9 5 22 12 WNW 1015,0 20 51 0,0
18.07.2019 12:00:00 24,3 6,1 29,5 8 4 29 15 W 1015,0 20 60 0,0
18.07.2019 11:00:00 23,6 5,9 28,5 13 7 23 13 WNW 1015,0 20 60 0,0
18.07.2019 10:00:00 22,8 9,6 24,9 14 8 29 16 W 1015,0 20 60 0,0
18.07.2019 09:00:00 21,0 7,9 22,1 9 5 26 14 WNW 1014,9 20 60 0,0
18.07.2019 08:00:00 19,3 8,3 15,3 0 0 8 5 N 1014,9 20 20 0,0
18.07.2019 07:00:00 17,3 11,1 13,6 0 0 16 9 N 1014,7 20 16 0,0
18.07.2019 06:00:00 17,3 11,6 14,5 4 2 12 6 SSW 1014,7 20 0 0,0
18.07.2019 05:00:00 18,6 11,7 15,0 4 2 11 6 SSW 1014,3 20 0 0,0
18.07.2019 04:00:00 17,9 11,7 14,8 6 3 8 4 S 1014,1 20 0 0,0
18.07.2019 03:00:00 19,3 11,6 14,9 4 2 12 6 SSE 1014,1 20 0 0,0
18.07.2019 02:00:00 18,0 10,8 13,9 4 2 6 3 S 1014,3 20 0 0,0
18.07.2019 01:00:00 18,9 9,1 15,3 2 1 3 2 ESE 1014,1 20 0 0,0
18.07.2019 00:00:00 19,4 9,3 15,1 0 0 8 4 N 1013,4 20 0 0,0
17.07.2019 23:00:00 18,8 9,6 16,1 0 0 3 1 N 1013,3 20 0 0,0
17.07.2019 22:00:00 21,5 8,4 18,7 0 0 11 6 N 1012,7 20 5 0,0
17.07.2019 21:00:00 26,3 6,8 24,8 11 6 24 13 N 1012,0 20 54 0,0
17.07.2019 20:00:00 28,4 6,5 31,6 18 10 28 15 N 1011,5 20 60 0,0
17.07.2019 19:00:00 28,5 6,6 30,5 14 8 29 16 NNE 1011,4 20 45 0,0
17.07.2019 18:00:00 29,3 6,6 34,2 16 9 28 15 NNE 1011,6 20 60 0,0
17.07.2019 17:00:00 29,9 7,1 39,0 11 6 27 15 NNE 1012,0 20 60 0,0
17.07.2019 16:00:00 29,1 5,8 37,2 18 10 31 17 NE 1012,4 20 60 0,0
17.07.2019 15:00:00 29,9 6,5 39,5 9 5 25 14 SSE 1012,8 20 60 0,0
17.07.2019 14:00:00 28,5 6,6 37,0 14 8 27 15 ENE 1013,2 20 60 0,0
17.07.2019 13:00:00 27,4 5,6 36,0 13 7 24 13 ENE 1013,8 20 60 0,0

tt = Température de l'air
td = dewpoint
tt 5cm = Température de l'air 5cm
ff = Vitesse du vent
fx = gusts
dd = Direction du vent
ppp = reduced air pressure
vv = visibility
sd = Ensoleillement
rr = Quantités de précipitations

stations d'obs. à proximité